| time (UTC) | temp F | wind direction | speed MPH | gust MPH | rain 1hr in | rain 24hr in | rain mn in | humidity % | barometer mb |
| 20260906145006 | 62 | 161 | 0.0 | 4.0 | 0.00 | 0.00 | 0.00 | 67 | 1015.5 |
| 20260906144507 | 61 | 83 | 1.0 | 3.0 | 0.00 | 0.00 | 0.00 | 68 | 1015.5 |
| 20260906144005 | 61 | 88 | 1.0 | 4.0 | 0.00 | 0.00 | 0.00 | 68 | 1015.5 |
| 20260906143505 | 61 | 88 | 2.0 | 4.0 | 0.00 | 0.00 | 0.00 | 68 | 1015.4 |
| 20260906143005 | 60 | 109 | 0.0 | 4.0 | 0.00 | 0.00 | 0.00 | 69 | 1015.4 |
| 20260906142504 | 60 | 74 | 1.0 | 4.0 | 0.00 | 0.00 | 0.00 | 71 | 1015.4 |
| 20260906142004 | 59 | 74 | 2.0 | 4.0 | 0.00 | 0.00 | 0.00 | 71 | 1015.3 |
| 20260906141511 | 59 | 72 | 1.0 | 3.0 | 0.00 | 0.00 | 0.00 | 71 | 1015.2 |
| 20260906141003 | 59 | 69 | 2.0 | 3.0 | 0.00 | 0.00 | 0.00 | 71 | 1015.3 |
| 20260906140505 | 59 | 68 | 2.0 | 4.0 | 0.00 | 0.00 | 0.00 | 71 | 1015.2 |
| 20260906140002 | 59 | 47 | 1.0 | 5.0 | 0.00 | 0.00 | 0.00 | 71 | 1015.1 |
| 20260906135503 | 59 | 47 | 2.0 | 5.0 | 0.00 | 0.00 | 0.00 | 70 | 1015.1 |
| 20260906135002 | 60 | 109 | 2.0 | 6.0 | 0.00 | 0.00 | 0.00 | 69 | 1015.1 |
| 20260906134502 | 60 | 142 | 3.0 | 5.0 | 0.00 | 0.00 | 0.00 | 69 | 1015.1 |
| 20260906134002 | 60 | 143 | 3.0 | 5.0 | 0.00 | 0.00 | 0.00 | 69 | 1015.1 |
| 20260906133501 | 60 | 117 | 2.0 | 5.0 | 0.00 | 0.00 | 0.00 | 69 | 1015.1 |
| 20260906133002 | 60 | 117 | 2.0 | 5.0 | 0.00 | 0.00 | 0.00 | 69 | 1015.1 |
| 20260906132601 | 60 | 105 | 1.0 | 5.0 | 0.00 | 0.00 | 0.00 | 70 | 1015.1 |
| 20260906132100 | 60 | 97 | 1.0 | 5.0 | 0.00 | 0.00 | 0.00 | 70 | 1015.0 |
| 20260906131600 | 60 | 109 | 3.0 | 5.0 | 0.00 | 0.00 | 0.00 | 70 | 1014.9 |
| 20260906131059 | 60 | 105 | 3.0 | 5.0 | 0.00 | 0.00 | 0.00 | 70 | 1014.8 |
| 20260906130559 | 60 | 157 | 1.0 | 3.0 | 0.00 | 0.00 | 0.00 | 70 | 1015.0 |
| 20260906130109 | 59 | 162 | 1.0 | 3.0 | 0.00 | 0.00 | 0.00 | 70 | 1015.0 |
| 20260906125558 | 59 | 142 | 1.0 | 4.0 | 0.00 | 0.00 | 0.00 | 71 | 1015.0 |
| 20260906125058 | 59 | 148 | 0.0 | 2.0 | 0.00 | 0.00 | 0.00 | 72 | 1014.9 |
| 20260906124558 | 59 | 149 | 0.0 | 4.0 | 0.00 | 0.00 | 0.00 | 71 | 1014.9 |
| 20260906124058 | 59 | 149 | 0.0 | 5.0 | 0.00 | 0.00 | 0.00 | 71 | 1014.9 |
| 20260906123557 | 59 | 148 | 1.0 | 5.0 | 0.00 | 0.00 | 0.00 | 71 | 1014.8 |
| 20260906123156 | 59 | 150 | 0.0 | 4.0 | 0.00 | 0.00 | 0.00 | 71 | 1014.9 |
| 20260906122556 | 59 | 150 | 0.0 | 6.0 | 0.00 | 0.00 | 0.00 | 71 | 1014.9 |
| 20260906122056 | 59 | 150 | 4.0 | 6.0 | 0.00 | 0.00 | 0.00 | 71 | 1014.9 |
| 20260906121556 | 59 | 157 | 4.0 | 5.0 | 0.00 | 0.00 | 0.00 | 71 | 1014.7 |
| 20260906121055 | 59 | 180 | 0.0 | 2.0 | 0.00 | 0.00 | 0.00 | 71 | 1014.7 |
| 20260906120554 | 60 | 180 | 0.0 | 2.0 | 0.00 | 0.00 | 0.00 | 71 | 1014.9 |
| 20260906120054 | 60 | 180 | 1.0 | 2.0 | 0.00 | 0.00 | 0.00 | 71 | 1014.9 |
| 20260906115553 | 60 | 180 | 0.0 | 1.0 | 0.00 | 0.00 | 0.00 | 71 | 1014.8 |
| 20260906115053 | 60 | 180 | 0.0 | 1.0 | 0.00 | 0.00 | 0.00 | 70 | 1014.9 |
| 20260906114553 | 60 | 180 | 0.0 | 1.0 | 0.00 | 0.00 | 0.00 | 69 | 1014.8 |
| 20260906114050 | 60 | 180 | 0.0 | 1.0 | 0.00 | 0.00 | 0.00 | 69 | 1014.8 |
| 20260906113549 | 61 | 180 | 0.0 | 1.0 | 0.00 | 0.00 | 0.00 | 68 | 1014.8 |
| 20260906113048 | 61 | 180 | 0.0 | 4.0 | 0.00 | 0.00 | 0.00 | 67 | 1014.7 |
| 20260906112546 | 62 | 174 | 1.0 | 4.0 | 0.00 | 0.00 | 0.00 | 65 | 1014.5 |
| 20260906112046 | 63 | 107 | 0.0 | 5.0 | 0.00 | 0.00 | 0.00 | 64 | 1014.4 |
| 20260906111601 | 63 | 103 | 1.0 | 5.0 | 0.00 | 0.00 | 0.00 | 64 | 1014.5 |
| 20260906111044 | 63 | 111 | 1.0 | 5.0 | 0.00 | 0.00 | 0.00 | 63 | 1014.5 |
| 20260906110544 | 63 | 99 | 1.0 | 4.0 | 0.00 | 0.00 | 0.00 | 63 | 1014.4 |
| 20260906110042 | 64 | 99 | 1.0 | 4.0 | 0.00 | 0.00 | 0.00 | 63 | 1014.4 |
| 20260906105541 | 64 | 98 | 0.0 | 2.0 | 0.00 | 0.00 | 0.00 | 62 | 1014.4 |
| 20260906105041 | 64 | 98 | 0.0 | 4.0 | 0.00 | 0.00 | 0.00 | 62 | 1014.4 |
| 20260906104540 | 64 | 98 | 2.0 | 4.0 | 0.00 | 0.00 | 0.00 | 62 | 1014.4 |
| 20260906104040 | 64 | 103 | 2.0 | 5.0 | 0.00 | 0.00 | 0.00 | 61 | 1014.4 |
| 20260906103539 | 64 | 108 | 3.0 | 5.0 | 0.00 | 0.00 | 0.00 | 61 | 1014.4 |
| 20260906103039 | 64 | 94 | 2.0 | 5.0 | 0.00 | 0.00 | 0.00 | 61 | 1014.4 |
| 20260906102539 | 64 | 88 | 2.0 | 5.0 | 0.00 | 0.00 | 0.00 | 61 | 1014.5 |
| 20260906102038 | 64 | 77 | 2.0 | 5.0 | 0.00 | 0.00 | 0.00 | 61 | 1014.5 |
| 20260906101538 | 64 | 65 | 3.0 | 5.0 | 0.00 | 0.00 | 0.00 | 62 | 1014.5 |
| 20260906101041 | 64 | 74 | 3.0 | 5.0 | 0.00 | 0.00 | 0.00 | 62 | 1014.5 |
| 20260906100537 | 64 | 81 | 3.0 | 6.0 | 0.00 | 0.00 | 0.00 | 62 | 1014.6 |
| 20260906100040 | 64 | 57 | 3.0 | 6.0 | 0.00 | 0.00 | 0.00 | 62 | 1014.6 |
| 20260906095543 | 64 | 81 | 3.0 | 5.0 | 0.00 | 0.00 | 0.00 | 62 | 1014.6 |
| 20260906095036 | 64 | 90 | 2.0 | 4.0 | 0.00 | 0.00 | 0.00 | 62 | 1014.6 |
| 20260906094536 | 64 | 84 | 2.0 | 5.0 | 0.00 | 0.00 | 0.00 | 62 | 1014.6 |
| 20260906094035 | 64 | 86 | 3.0 | 6.0 | 0.00 | 0.00 | 0.00 | 62 | 1014.7 |
| 20260906093535 | 64 | 74 | 3.0 | 6.0 | 0.00 | 0.00 | 0.00 | 62 | 1014.6 |
| 20260906093036 | 64 | 94 | 3.0 | 6.0 | 0.00 | 0.00 | 0.00 | 62 | 1014.6 |
| 20260906092534 | 64 | 88 | 2.0 | 5.0 | 0.00 | 0.00 | 0.00 | 62 | 1014.6 |
| 20260906092034 | 64 | 98 | 3.0 | 6.0 | 0.00 | 0.00 | 0.00 | 62 | 1014.7 |
| 20260906091533 | 64 | 93 | 2.0 | 6.0 | 0.00 | 0.00 | 0.00 | 62 | 1014.7 |
| 20260906091033 | 64 | 77 | 2.0 | 6.0 | 0.00 | 0.00 | 0.00 | 62 | 1014.8 |
| 20260906090532 | 64 | 103 | 2.0 | 6.0 | 0.00 | 0.00 | 0.00 | 62 | 1014.7 |
| 20260906090032 | 64 | 107 | 3.0 | 6.0 | 0.00 | 0.00 | 0.00 | 63 | 1014.9 |
| 20260906085532 | 64 | 92 | 3.0 | 6.0 | 0.00 | 0.00 | 0.00 | 63 | 1014.8 |
| 20260906085031 | 64 | 92 | 3.0 | 6.0 | 0.00 | 0.00 | 0.00 | 63 | 1014.9 |
| 20260906084530 | 64 | 93 | 3.0 | 6.0 | 0.00 | 0.00 | 0.00 | 63 | 1014.9 |
| 20260906084032 | 64 | 94 | 3.0 | 6.0 | 0.00 | 0.00 | 0.00 | 62 | 1014.9 |
| 20260906083529 | 64 | 94 | 3.0 | 7.0 | 0.00 | 0.00 | 0.00 | 62 | 1015.0 |
| 20260906083028 | 65 | 90 | 3.0 | 7.0 | 0.00 | 0.00 | 0.00 | 62 | 1015.0 |
| 20260906082527 | 65 | 102 | 2.0 | 5.0 | 0.00 | 0.00 | 0.00 | 62 | 1015.0 |
| 20260906082027 | 65 | 88 | 2.0 | 4.0 | 0.00 | 0.00 | 0.00 | 61 | 1015.0 |
| 20260906081526 | 65 | 101 | 2.0 | 4.0 | 0.00 | 0.00 | 0.00 | 61 | 1015.0 |
| 20260906081025 | 65 | 105 | 1.0 | 3.0 | 0.00 | 0.00 | 0.00 | 60 | 1015.0 |
| 20260906080525 | 65 | 108 | 1.0 | 4.0 | 0.00 | 0.00 | 0.00 | 60 | 1015.1 |
| 20260906080023 | 66 | 110 | 1.0 | 3.0 | 0.00 | 0.00 | 0.00 | 60 | 1015.0 |
| 20260906075524 | 66 | 360 | 1.0 | 2.0 | 0.00 | 0.00 | 0.00 | 59 | 1015.1 |
| 20260906075022 | 66 | 360 | 1.0 | 4.0 | 0.00 | 0.00 | 0.00 | 59 | 1015.1 |
| 20260906074521 | 66 | 123 | 1.0 | 4.0 | 0.00 | 0.00 | 0.00 | 58 | 1015.1 |
| 20260906074022 | 66 | 124 | 1.0 | 2.0 | 0.00 | 0.00 | 0.00 | 58 | 1015.3 |
| 20260906073521 | 66 | 124 | 1.0 | 2.0 | 0.00 | 0.00 | 0.00 | 58 | 1015.3 |
| 20260906073020 | 66 | 124 | 1.0 | 3.0 | 0.00 | 0.00 | 0.00 | 58 | 1015.3 |
| 20260906072519 | 66 | 124 | 1.0 | 4.0 | 0.00 | 0.00 | 0.00 | 58 | 1015.3 |
| 20260906072018 | 66 | 125 | 1.0 | 4.0 | 0.00 | 0.00 | 0.00 | 58 | 1015.3 |
| 20260906071518 | 66 | 125 | 1.0 | 3.0 | 0.00 | 0.00 | 0.00 | 57 | 1015.3 |
| 20260906071017 | 66 | 125 | 1.0 | 5.0 | 0.00 | 0.00 | 0.00 | 57 | 1015.4 |
| 20260906070518 | 67 | 151 | 2.0 | 3.0 | 0.00 | 0.00 | 0.00 | 56 | 1015.4 |
| 20260906070115 | 67 | 151 | 1.0 | 3.0 | 0.00 | 0.00 | 0.00 | 56 | 1015.4 |
| 20260906065517 | 67 | 152 | 1.0 | 2.0 | 0.00 | 0.00 | 0.00 | 55 | 1015.5 |
| 20260906065015 | 67 | 152 | 1.0 | 2.0 | 0.00 | 0.00 | 0.00 | 55 | 1015.5 |
| 20260906064514 | 67 | 152 | 1.0 | 2.0 | 0.00 | 0.00 | 0.00 | 54 | 1015.5 |
| 20260906064019 | 68 | 152 | 0.0 | 4.0 | 0.00 | 0.00 | 0.00 | 54 | 1015.5 |
| 20260906063518 | 68 | 152 | 1.0 | 4.0 | 0.00 | 0.00 | 0.00 | 53 | 1015.5 |
| 20260906063015 | 68 | 159 | 1.0 | 3.0 | 0.00 | 0.00 | 0.00 | 53 | 1015.6 |
| 20260906062514 | 68 | 159 | 1.0 | 2.0 | 0.00 | 0.00 | 0.00 | 53 | 1015.5 |
| 20260906062015 | 68 | 161 | 0.0 | 2.0 | 0.00 | 0.00 | 0.00 | 52 | 1015.6 |
| 20260906061514 | 68 | 161 | 0.0 | 1.0 | 0.00 | 0.00 | 0.00 | 52 | 1015.6 |
| 20260906061013 | 69 | 360 | 0.0 | 4.0 | 0.00 | 0.00 | 0.00 | 52 | 1015.6 |
| 20260906060514 | 69 | 161 | 1.0 | 5.0 | 0.00 | 0.00 | 0.00 | 51 | 1015.6 |
| 20260906060022 | 69 | 162 | 4.0 | 7.0 | 0.00 | 0.00 | 0.00 | 51 | 1015.5 |
| 20260906055512 | 69 | 172 | 5.0 | 7.0 | 0.00 | 0.00 | 0.00 | 50 | 1015.6 |
| 20260906055013 | 70 | 156 | 2.0 | 6.0 | 0.00 | 0.00 | 0.00 | 50 | 1015.4 |
| 20260906054517 | 70 | 153 | 1.0 | 3.0 | 0.00 | 0.00 | 0.00 | 49 | 1015.4 |
| 20260906054012 | 70 | 153 | 1.0 | 4.0 | 0.00 | 0.00 | 0.00 | 49 | 1015.4 |
| 20260906053512 | 70 | 153 | 0.0 | 5.0 | 0.00 | 0.00 | 0.00 | 48 | 1015.4 |
| 20260906053012 | 70 | 153 | 2.0 | 5.0 | 0.00 | 0.00 | 0.00 | 49 | 1015.4 |
| 20260906052512 | 70 | 153 | 2.0 | 5.0 | 0.00 | 0.00 | 0.00 | 49 | 1015.3 |
| 20260906052014 | 71 | 154 | 2.0 | 4.0 | 0.00 | 0.00 | 0.00 | 48 | 1015.3 |
| 20260906051511 | 71 | 155 | 0.0 | 4.0 | 0.00 | 0.00 | 0.00 | 47 | 1015.3 |
| 20260906051012 | 71 | 155 | 0.0 | 4.0 | 0.00 | 0.00 | 0.00 | 46 | 1015.2 |
| 20260906050511 | 71 | 156 | 0.0 | 8.0 | 0.00 | 0.00 | 0.00 | 46 | 1015.1 |
| 20260906050011 | 72 | 164 | 4.0 | 8.0 | 0.00 | 0.00 | 0.00 | 46 | 1015.2 |
| 20260906045511 | 72 | 146 | 2.0 | 6.0 | 0.00 | 0.00 | 0.00 | 46 | 1015.1 |
| 20260906045010 | 72 | 153 | 2.0 | 7.0 | 0.00 | 0.00 | 0.00 | 46 | 1015.1 |
| 20260906044512 | 72 | 167 | 1.0 | 6.0 | 0.00 | 0.00 | 0.00 | 45 | 1015.1 |
| 20260906044011 | 72 | 156 | 1.0 | 6.0 | 0.00 | 0.00 | 0.00 | 45 | 1015.1 |
| 20260906043510 | 72 | 167 | 1.0 | 4.0 | 0.00 | 0.00 | 0.00 | 45 | 1015.0 |
| 20260906043016 | 72 | 137 | 1.0 | 3.0 | 0.00 | 0.00 | 0.00 | 45 | 1015.0 |
| 20260906042609 | 72 | 136 | 1.0 | 3.0 | 0.00 | 0.00 | 0.00 | 46 | 1014.9 |
| 20260906042009 | 72 | 133 | 1.0 | 5.0 | 0.00 | 0.00 | 0.00 | 45 | 1014.9 |
| 20260906041509 | 73 | 105 | 2.0 | 5.0 | 0.00 | 0.00 | 0.00 | 45 | 1014.9 |
| 20260906041009 | 73 | 137 | 2.0 | 5.0 | 0.00 | 0.00 | 0.00 | 44 | 1014.8 |
| 20260906040509 | 73 | 164 | 2.0 | 5.0 | 0.00 | 0.00 | 0.00 | 44 | 1014.8 |
| 20260906040017 | 73 | 141 | 1.0 | 5.0 | 0.00 | 0.00 | 0.00 | 44 | 1014.8 |
| 20260906035508 | 73 | 152 | 2.0 | 6.0 | 0.00 | 0.00 | 0.00 | 44 | 1014.7 |
| 20260906035008 | 73 | 146 | 2.0 | 6.0 | 0.00 | 0.00 | 0.00 | 44 | 1014.7 |
| 20260906034513 | 74 | 142 | 2.0 | 6.0 | 0.00 | 0.00 | 0.00 | 45 | 1014.6 |
| 20260906034008 | 74 | 144 | 2.0 | 6.0 | 0.00 | 0.00 | 0.00 | 45 | 1014.6 |
| 20260906033506 | 74 | 155 | 3.0 | 6.0 | 0.00 | 0.00 | 0.00 | 45 | 1014.4 |
| 20260906033021 | 74 | 140 | 4.0 | 6.0 | 0.00 | 0.00 | 0.00 | 44 | 1014.4 |
| 20260906032505 | 74 | 155 | 4.0 | 6.0 | 0.00 | 0.00 | 0.00 | 45 | 1014.4 |
| 20260906032007 | 74 | 148 | 4.0 | 6.0 | 0.00 | 0.00 | 0.00 | 45 | 1014.4 |
| 20260906031509 | 74 | 150 | 2.0 | 6.0 | 0.00 | 0.00 | 0.00 | 45 | 1014.3 |
| 20260906031007 | 74 | 205 | 1.0 | 4.0 | 0.00 | 0.00 | 0.00 | 45 | 1014.3 |
| 20260906030506 | 74 | 234 | 1.0 | 4.0 | 0.00 | 0.00 | 0.00 | 45 | 1014.2 |
| 20260906030005 | 75 | 253 | 1.0 | 4.0 | 0.00 | 0.00 | 0.00 | 45 | 1014.3 |
| 20260906025504 | 75 | 256 | 1.0 | 2.0 | 0.00 | 0.00 | 0.00 | 44 | 1014.2 |
| 20260906025004 | 75 | 257 | 0.0 | 2.0 | 0.00 | 0.00 | 0.00 | 43 | 1014.2 |
| 20260906024504 | 76 | 360 | 0.0 | 2.0 | 0.00 | 0.00 | 0.00 | 42 | 1014.2 |
| 20260906024004 | 76 | 257 | 0.0 | 4.0 | 0.00 | 0.00 | 0.00 | 42 | 1014.3 |
| 20260906023504 | 76 | 257 | 1.0 | 3.0 | 0.00 | 0.00 | 0.00 | 41 | 1014.3 |
| 20260906023004 | 77 | 258 | 1.0 | 2.0 | 0.00 | 0.00 | 0.00 | 42 | 1014.3 |
| 20260906022504 | 77 | 227 | 0.0 | 4.0 | 0.00 | 0.00 | 0.00 | 42 | 1014.3 |
| 20260906022003 | 77 | 189 | 0.0 | 5.0 | 0.00 | 0.00 | 0.00 | 42 | 1014.3 |
| 20260906021505 | 77 | 211 | 2.0 | 6.0 | 0.00 | 0.00 | 0.00 | 41 | 1014.3 |
| 20260906021003 | 77 | 212 | 4.0 | 6.0 | 0.00 | 0.00 | 0.00 | 40 | 1014.3 |
| 20260906020503 | 78 | 215 | 3.0 | 5.0 | 0.00 | 0.00 | 0.00 | 40 | 1014.3 |
| 20260906020002 | 78 | 205 | 1.0 | 7.0 | 0.00 | 0.00 | 0.00 | 42 | 1014.3 |
| 20260906015503 | 78 | 190 | 5.0 | 7.0 | 0.00 | 0.00 | 0.00 | 41 | 1014.3 |
| 20260906015002 | 78 | 171 | 2.0 | 7.0 | 0.00 | 0.00 | 0.00 | 41 | 1014.3 |
| 20260906014502 | 79 | 217 | 3.0 | 7.0 | 0.00 | 0.00 | 0.00 | 40 | 1014.3 |
| 20260906014000 | 79 | 221 | 4.0 | 7.0 | 0.00 | 0.00 | 0.00 | 39 | 1014.3 |
| 20260906013700 | 79 | 203 | 5.0 | 7.0 | 0.00 | 0.00 | 0.00 | 39 | 1014.3 |
| 20260906013109 | 79 | 148 | 1.0 | 7.0 | 0.00 | 0.00 | 0.00 | 39 | 1014.4 |
| 20260906012559 | 79 | 172 | 4.0 | 10.0 | 0.00 | 0.00 | 0.00 | 39 | 1014.5 |
| 20260906012058 | 79 | 148 | 4.0 | 10.0 | 0.00 | 0.00 | 0.00 | 38 | 1014.5 |
| 20260906011559 | 79 | 153 | 4.0 | 8.0 | 0.00 | 0.00 | 0.00 | 39 | 1014.6 |
| 20260906011059 | 79 | 205 | 5.0 | 9.0 | 0.00 | 0.00 | 0.00 | 38 | 1014.6 |
| 20260906010558 | 79 | 226 | 5.0 | 9.0 | 0.00 | 0.00 | 0.00 | 38 | 1014.6 |
| 20260906010057 | 79 | 285 | 4.0 | 9.0 | 0.00 | 0.00 | 0.00 | 38 | 1014.5 |
| 20260906005557 | 79 | 219 | 4.0 | 9.0 | 0.00 | 0.00 | 0.00 | 38 | 1014.6 |
| 20260906005100 | 79 | 221 | 5.0 | 11.0 | 0.00 | 0.00 | 0.00 | 38 | 1014.6 |
| 20260906004557 | 79 | 209 | 5.0 | 11.0 | 0.00 | 0.00 | 0.00 | 38 | 1014.6 |
| 20260906004056 | 79 | 186 | 5.0 | 10.0 | 0.00 | 0.00 | 0.00 | 37 | 1014.7 |
| 20260906003556 | 79 | 216 | 6.0 | 10.0 | 0.00 | 0.00 | 0.00 | 37 | 1014.7 |
| 20260906003057 | 79 | 206 | 3.0 | 7.0 | 0.00 | 0.00 | 0.00 | 39 | 1014.6 |
| 20260906002559 | 78 | 213 | 5.0 | 7.0 | 0.00 | 0.00 | 0.00 | 37 | 1014.7 |
| 20260906002055 | 79 | 269 | 4.0 | 10.0 | 0.00 | 0.00 | 0.00 | 38 | 1014.6 |
| 20260906001604 | 79 | 215 | 6.0 | 10.0 | 0.00 | 0.00 | 0.00 | 38 | 1014.7 |
| 20260906001057 | 79 | 265 | 5.0 | 13.0 | 0.00 | 0.00 | 0.00 | 38 | 1014.7 |
| 20260906000559 | 78 | 238 | 5.0 | 13.0 | 0.00 | 0.00 | 0.00 | 39 | 1014.8 |
| 20260906000054 | 78 | 170 | 6.0 | 13.0 | 0.00 | 0.00 | 0.00 | 38 | 1014.7 |
| 20260905235556 | 78 | 176 | 9.0 | 13.0 | 0.00 | 0.00 | 0.00 | 38 | 1014.7 |
| 20260905235053 | 79 | 211 | 4.0 | 10.0 | 0.00 | 0.00 | 0.00 | 40 | 1014.7 |
| 20260905234553 | 79 | 269 | 5.0 | 11.0 | 0.00 | 0.00 | 0.00 | 39 | 1014.7 |
| 20260905234052 | 79 | 236 | 7.0 | 11.0 | 0.00 | 0.00 | 0.00 | 40 | 1014.8 |
| 20260905233552 | 80 | 276 | 8.0 | 11.0 | 0.00 | 0.00 | 0.00 | 37 | 1014.7 |
| 20260905233059 | 79 | 242 | 6.0 | 10.0 | 0.00 | 0.00 | 0.00 | 38 | 1014.7 |
| 20260905232552 | 79 | 231 | 7.0 | 10.0 | 0.00 | 0.00 | 0.00 | 39 | 1014.7 |
| 20260905232051 | 80 | 190 | 4.0 | 9.0 | 0.00 | 0.00 | 0.00 | 38 | 1014.6 |
| 20260905231551 | 80 | 185 | 4.0 | 8.0 | 0.00 | 0.00 | 0.00 | 39 | 1014.6 |
| 20260905231049 | 79 | 222 | 5.0 | 10.0 | 0.00 | 0.00 | 0.00 | 40 | 1014.7 |
| 20260905230548 | 79 | 230 | 5.0 | 10.0 | 0.00 | 0.00 | 0.00 | 41 | 1014.7 |
| 20260905230050 | 78 | 176 | 5.0 | 8.0 | 0.00 | 0.00 | 0.00 | 40 | 1014.7 |
| 20260905225547 | 78 | 159 | 4.0 | 10.0 | 0.00 | 0.00 | 0.00 | 40 | 1014.9 |
| 20260905225046 | 78 | 190 | 8.0 | 10.0 | 0.00 | 0.00 | 0.00 | 40 | 1015.0 |
| 20260905224610 | 79 | 155 | 2.0 | 11.0 | 0.00 | 0.00 | 0.00 | 39 | 1015.0 |
| 20260905224046 | 78 | 184 | 6.0 | 11.0 | 0.00 | 0.00 | 0.00 | 39 | 1014.9 |
| 20260905223548 | 78 | 142 | 5.0 | 9.0 | 0.00 | 0.00 | 0.00 | 40 | 1014.9 |
| 20260905223047 | 78 | 158 | 4.0 | 9.0 | 0.00 | 0.00 | 0.00 | 39 | 1015.0 |
| 20260905222546 | 78 | 189 | 4.0 | 10.0 | 0.00 | 0.00 | 0.00 | 39 | 1014.9 |
| 20260905222049 | 79 | 216 | 3.0 | 10.0 | 0.00 | 0.00 | 0.00 | 38 | 1015.0 |
| 20260905221544 | 78 | 231 | 5.0 | 11.0 | 0.00 | 0.00 | 0.00 | 38 | 1015.1 |
| 20260905221045 | 78 | 136 | 4.0 | 11.0 | 0.00 | 0.00 | 0.00 | 38 | 1015.2 |
| 20260905220543 | 78 | 188 | 5.0 | 11.0 | 0.00 | 0.00 | 0.00 | 39 | 1015.1 |
| 20260905220043 | 78 | 202 | 6.0 | 11.0 | 0.00 | 0.00 | 0.00 | 38 | 1015.2 |
| 20260905215543 | 79 | 189 | 4.0 | 9.0 | 0.00 | 0.00 | 0.00 | 37 | 1015.3 |
| 20260905215041 | 78 | 221 | 4.0 | 8.0 | 0.00 | 0.00 | 0.00 | 38 | 1015.4 |
| 20260905214547 | 78 | 213 | 5.0 | 10.0 | 0.00 | 0.00 | 0.00 | 38 | 1015.4 |
| 20260905214041 | 77 | 198 | 4.0 | 12.0 | 0.00 | 0.00 | 0.00 | 40 | 1015.5 |
| 20260905213541 | 78 | 157 | 7.0 | 12.0 | 0.00 | 0.00 | 0.00 | 38 | 1015.5 |
| 20260905213042 | 78 | 215 | 7.0 | 10.0 | 0.00 | 0.00 | 0.00 | 39 | 1015.5 |
| 20260905212542 | 78 | 141 | 5.0 | 10.0 | 0.00 | 0.00 | 0.00 | 37 | 1015.6 |
| 20260905212041 | 78 | 158 | 5.0 | 10.0 | 0.00 | 0.00 | 0.00 | 37 | 1015.6 |
| 20260905211546 | 78 | 171 | 5.0 | 12.0 | 0.00 | 0.00 | 0.00 | 36 | 1015.6 |
| 20260905211038 | 77 | 201 | 4.0 | 9.0 | 0.00 | 0.00 | 0.00 | 39 | 1015.6 |
| 20260905210537 | 76 | 209 | 5.0 | 8.0 | 0.00 | 0.00 | 0.00 | 40 | 1015.6 |
| 20260905210043 | 76 | 273 | 4.0 | 10.0 | 0.00 | 0.00 | 0.00 | 40 | 1015.6 |
| 20260905205536 | 75 | 230 | 4.0 | 10.0 | 0.00 | 0.00 | 0.00 | 39 | 1015.6 |
| 20260905205039 | 75 | 200 | 5.0 | 10.0 | 0.00 | 0.00 | 0.00 | 41 | 1015.7 |
| 20260905204538 | 76 | 190 | 5.0 | 11.0 | 0.00 | 0.00 | 0.00 | 38 | 1015.6 |
| 20260905204038 | 76 | 173 | 4.0 | 13.0 | 0.00 | 0.00 | 0.00 | 37 | 1015.6 |
| 20260905203535 | 76 | 207 | 9.0 | 13.0 | 0.00 | 0.00 | 0.00 | 37 | 1015.7 |
| 20260905203037 | 76 | 176 | 6.0 | 10.0 | 0.00 | 0.00 | 0.00 | 38 | 1015.7 |
| 20260905202533 | 76 | 182 | 5.0 | 11.0 | 0.00 | 0.00 | 0.00 | 39 | 1015.7 |
| 20260905202033 | 75 | 250 | 2.0 | 11.0 | 0.00 | 0.00 | 0.00 | 40 | 1015.7 |
| 20260905201534 | 75 | 159 | 4.0 | 10.0 | 0.00 | 0.00 | 0.00 | 41 | 1015.8 |
| 20260905201032 | 75 | 220 | 6.0 | 9.0 | 0.00 | 0.00 | 0.00 | 42 | 1015.8 |
| 20260905200532 | 75 | 176 | 5.0 | 11.0 | 0.00 | 0.00 | 0.00 | 43 | 1015.9 |
| 20260905200034 | 75 | 203 | 5.0 | 10.0 | 0.00 | 0.00 | 0.00 | 44 | 1016.0 |
| 20260905195531 | 75 | 173 | 6.0 | 9.0 | 0.00 | 0.00 | 0.00 | 44 | 1016.1 |
| 20260905195033 | 75 | 206 | 5.0 | 9.0 | 0.00 | 0.00 | 0.00 | 45 | 1016.1 |
| 20260905194529 | 75 | 227 | 3.0 | 6.0 | 0.00 | 0.00 | 0.00 | 44 | 1016.1 |
| 20260905194028 | 74 | 360 | 1.0 | 11.0 | 0.00 | 0.00 | 0.00 | 46 | 1016.1 |
| 20260905193527 | 73 | 360 | 6.0 | 11.0 | 0.00 | 0.00 | 0.00 | 46 | 1016.3 |
| 20260905193026 | 73 | 360 | 7.0 | 11.0 | 0.00 | 0.00 | 0.00 | 48 | 1016.3 |
| 20260905192525 | 72 | 360 | 3.0 | 13.0 | 0.00 | 0.00 | 0.00 | 48 | 1016.2 |
| 20260905192025 | 72 | 360 | 7.0 | 13.0 | 0.00 | 0.00 | 0.00 | 49 | 1016.4 |
| 20260905191524 | 71 | 360 | 5.0 | 13.0 | 0.00 | 0.00 | 0.00 | 49 | 1016.3 |
| 20260905191026 | 72 | 360 | 7.0 | 13.0 | 0.00 | 0.00 | 0.00 | 52 | 1016.4 |
| 20260905190524 | 72 | 360 | 4.0 | 7.0 | 0.00 | 0.00 | 0.00 | 53 | 1016.3 |
| 20260905190023 | 71 | 271 | 2.0 | 9.0 | 0.00 | 0.00 | 0.00 | 52 | 1016.3 |
| 20260905185520 | 71 | 360 | 6.0 | 9.0 | 0.00 | 0.00 | 0.00 | 53 | 1016.5 |
| 20260905185019 | 71 | 252 | 2.0 | 7.0 | 0.00 | 0.00 | 0.00 | 54 | 1016.5 |
| 20260905184527 | 70 | 360 | 1.0 | 12.0 | 0.00 | 0.00 | 0.00 | 56 | 1016.4 |
| 20260905184018 | 70 | 360 | 9.0 | 12.0 | 0.00 | 0.00 | 0.00 | 55 | 1016.5 |
| 20260905183518 | 70 | 360 | 4.0 | 10.0 | 0.00 | 0.00 | 0.00 | 55 | 1016.4 |
| 20260905183017 | 70 | 360 | 4.0 | 9.0 | 0.00 | 0.00 | 0.00 | 56 | 1016.5 |
| 20260905182515 | 69 | 360 | 6.0 | 9.0 | 0.00 | 0.00 | 0.00 | 57 | 1016.4 |
| 20260905182015 | 69 | 360 | 4.0 | 11.0 | 0.00 | 0.00 | 0.00 | 57 | 1016.4 |
| 20260905181515 | 69 | 273 | 6.0 | 11.0 | 0.00 | 0.00 | 0.00 | 57 | 1016.4 |
| 20260905181013 | 69 | 237 | 4.0 | 9.0 | 0.00 | 0.00 | 0.00 | 59 | 1016.5 |
| 20260905180515 | 68 | 237 | 1.0 | 9.0 | 0.00 | 0.00 | 0.00 | 58 | 1016.4 |
| 20260905180011 | 68 | 180 | 6.0 | 9.0 | 0.00 | 0.00 | 0.00 | 60 | 1016.4 |
| 20260905175510 | 68 | 275 | 4.0 | 8.0 | 0.00 | 0.00 | 0.00 | 60 | 1016.4 |
| 20260905175010 | 68 | 207 | 6.0 | 8.0 | 0.00 | 0.00 | 0.00 | 61 | 1016.3 |
| 20260905174510 | 68 | 236 | 1.0 | 8.0 | 0.00 | 0.00 | 0.00 | 60 | 1016.3 |
| 20260905174009 | 68 | 221 | 4.0 | 8.0 | 0.00 | 0.00 | 0.00 | 60 | 1016.2 |
| 20260905173509 | 68 | 229 | 3.0 | 7.0 | 0.00 | 0.00 | 0.00 | 60 | 1016.3 |
| 20260905173008 | 67 | 270 | 4.0 | 6.0 | 0.00 | 0.00 | 0.00 | 60 | 1016.3 |
| 20260905172508 | 67 | 235 | 2.0 | 6.0 | 0.00 | 0.00 | 0.00 | 60 | 1016.2 |
| 20260905172009 | 67 | 252 | 3.0 | 6.0 | 0.00 | 0.00 | 0.00 | 62 | 1016.2 |
| 20260905171505 | 66 | 191 | 2.0 | 7.0 | 0.00 | 0.00 | 0.00 | 62 | 1016.2 |
| 20260905171004 | 66 | 225 | 4.0 | 7.0 | 0.00 | 0.00 | 0.00 | 63 | 1016.1 |
| 20260905170503 | 66 | 261 | 2.0 | 6.0 | 0.00 | 0.00 | 0.00 | 63 | 1016.3 |
| 20260905170003 | 65 | 254 | 3.0 | 7.0 | 0.00 | 0.01 | 0.00 | 63 | 1016.3 |
| 20260905165501 | 65 | 238 | 1.0 | 7.0 | 0.00 | 0.01 | 0.00 | 64 | 1016.2 |
| 20260905165001 | 65 | 266 | 5.0 | 7.0 | 0.00 | 0.01 | 0.00 | 65 | 1016.2 |
| 20260905164607 | 65 | 219 | 3.0 | 6.0 | 0.00 | 0.01 | 0.00 | 65 | 1016.1 |
| 20260905164100 | 65 | 176 | 0.0 | 6.0 | 0.00 | 0.01 | 0.00 | 65 | 1016.0 |
| 20260905163559 | 64 | 360 | 0.0 | 2.0 | 0.00 | 0.01 | 0.00 | 65 | 1016.0 |
| 20260905163108 | 64 | 360 | 1.0 | 2.0 | 0.00 | 0.01 | 0.00 | 66 | 1016.0 |
| 20260905162557 | 64 | 360 | 0.0 | 2.0 | 0.00 | 0.01 | 0.00 | 67 | 1016.1 |
| 20260905162056 | 63 | 360 | 0.0 | 4.0 | 0.00 | 0.01 | 0.00 | 68 | 1016.1 |
| 20260905161606 | 62 | 360 | 1.0 | 4.0 | 0.00 | 0.01 | 0.00 | 68 | 1016.1 |
| 20260905161056 | 62 | 360 | 0.0 | 4.0 | 0.00 | 0.01 | 0.00 | 69 | 1016.2 |
| 20260905160556 | 61 | 360 | 1.0 | 4.0 | 0.00 | 0.01 | 0.00 | 69 | 1016.2 |
| 20260905160054 | 61 | 360 | 0.0 | 2.0 | 0.00 | 0.01 | 0.00 | 69 | 1016.3 |
| 20260905155554 | 61 | 360 | 0.0 | 2.0 | 0.00 | 0.01 | 0.00 | 70 | 1016.3 |
| 20260905155054 | 60 | 360 | 0.0 | 2.0 | 0.00 | 0.01 | 0.00 | 72 | 1016.3 |
| 20260905154602 | 59 | 360 | 0.0 | 2.0 | 0.00 | 0.01 | 0.00 | 71 | 1016.4 |
| 20260905154055 | 59 | 360 | 0.0 | 2.0 | 0.00 | 0.01 | 0.00 | 73 | 1016.3 |
| 20260905153552 | 59 | 360 | 0.0 | 4.0 | 0.00 | 0.01 | 0.00 | 74 | 1016.3 |
| 20260905153053 | 58 | 310 | 1.0 | 4.0 | 0.00 | 0.01 | 0.00 | 75 | 1016.4 |
| 20260905152552 | 58 | 302 | 0.0 | 2.0 | 0.00 | 0.01 | 0.00 | 76 | 1016.2 |
| 20260905152051 | 57 | 274 | 1.0 | 2.0 | 0.00 | 0.01 | 0.00 | 76 | 1016.2 |
| 20260905151551 | 57 | 360 | 0.0 | 1.0 | 0.00 | 0.01 | 0.00 | 77 | 1016.1 |
| 20260905151051 | 56 | 360 | 0.0 | 1.0 | 0.00 | 0.01 | 0.00 | 78 | 1016.1 |
| 20260905150550 | 56 | 242 | 0.0 | 1.0 | 0.00 | 0.01 | 0.00 | 79 | 1016.2 |
| 20260905150052 | 55 | 202 | 0.0 | 1.0 | 0.00 | 0.01 | 0.00 | 80 | 1016.2 |
| 20260905145550 | 55 | 52 | 0.0 | 0.0 | 0.00 | 0.01 | 0.00 | 80 | 1016.1 |